This is the latest recevied weather packets stored in our database for station/object WA7CUG. If no packets are shown the sender has not sent any weather packets the latest 10 day(s).
| Time | Temp. | Humidity | Pressure | Rain* | Wind** | Luminosity | Snow |
|---|---|---|---|---|---|---|---|
| 1777913664 | 21.11° C | 43% | 1010.6 hPa | 0 mm | - | 417 W/m² | - |
| 1777913361 | 20.56° C | 45% | 1010.5 hPa | 0 mm | - | 440 W/m² | - |
| 1777913057 | 20° C | 43% | 1010.7 hPa | 0 mm | - | 442 W/m² | - |
| 1777912753 | 20° C | 44% | 1010.6 hPa | 0 mm | - | 411 W/m² | - |
| 1777912449 | 19.44° C | 45% | 1010.6 hPa | 0 mm | - | 379 W/m² | - |
| 1777912146 | 19.44° C | 45% | 1010.7 hPa | 0 mm | - | 372 W/m² | - |
| 1777911841 | 18.89° C | 47% | 1011.1 hPa | 0 mm | - | 357 W/m² | - |
| 1777911539 | 18.89° C | 46% | 1010.9 hPa | 0 mm | - | 357 W/m² | - |
| 1777911235 | 18.33° C | 46% | 1010.9 hPa | 0 mm | - | 370 W/m² | - |
| 1777910932 | 18.33° C | 48% | 1011 hPa | 0 mm | - | 343 W/m² | - |
| 1777910629 | 17.78° C | 48% | 1010.8 hPa | 0 mm | - | 354 W/m² | - |
| 1777910326 | 17.78° C | 50% | 1011 hPa | 0 mm | - | 337 W/m² | - |
| 1777910023 | 17.22° C | 51% | 1011.1 hPa | 0 mm | - | 320 W/m² | - |
| 1777909720 | 17.22° C | 57% | 1011.1 hPa | 0 mm | - | 169 W/m² | - |
| 1777909417 | 16.11° C | 61% | 1011.1 hPa | 0 mm | - | 260 W/m² | - |
| 1777909115 | 16.11° C | 59% | 1011.2 hPa | 0 mm | - | 283 W/m² | - |
| 1777908813 | 16.11° C | 56% | 1011.1 hPa | 0 mm | - | 270 W/m² | - |
| 1777908509 | 15.56° C | 56% | 1011.1 hPa | 0 mm | - | 256 W/m² | - |
| 1777908206 | 15.56° C | 58% | 1011.2 hPa | 0 mm | - | 240 W/m² | - |
| 1777907902 | 15.56° C | 58% | 1011.3 hPa | 0 mm | - | 229 W/m² | - |
| 1777907598 | 15.56° C | 60% | 1011.3 hPa | 0 mm | - | 54 W/m² | - |
| 1777907294 | 15° C | 60% | 1011.3 hPa | 0 mm | - | 53 W/m² | - |
| 1777906991 | 15° C | 60% | 1011.4 hPa | 0 mm | - | 196 W/m² | - |
| 1777906689 | 15° C | 60% | 1011.3 hPa | 0 mm | - | 52 W/m² | - |
| 1777906385 | 14.44° C | 60% | 1011.4 hPa | 0 mm | - | 66 W/m² | - |
* Rain latest hour (hover to see other rain measurements)
** Current wind speed in m/s (hover to see current wind gust speed)